Weather History for Asyut, Egypt

Change the Weather History Date:

Thursday, January 17, 2013

  Actual Average Record
Temperature  
Mean Temperature 60 °F -  
Max Temperature 73 °F 69 °F - ()
Min Temperature 47 °F 42 °F - ()
Degree Days  
Heating Degree Days 5    
Growing Degree Days 10 (Base 50)    
Moisture  
Dew Point 43 °F    
Average Humidity 50    
Maximum Humidity 72    
Minimum Humidity 23    
Precipitation  
Precipitation 0.00 in 0.00 in - ()
Sea Level Pressure  
Sea Level Pressure 30.05 in    
Wind  
Wind Speed 4 mph ()    
Max Wind Speed 14 mph    
Max Gust Speed -    
Visibility 6.0 miles    
Events      
T = Trace of Precipitation, MM = Missing Value Source: Averaged Metar Reports

Daily Weather History Graph

Daily Weather History Graph

Search for Another Location

Airport:

Trip Planner

Search our weather history database for the weather conditions in past years. The results will help you decide how hot, cold, wet, or windy it might be!

Date:

Astronomy

Jan. 17, 2013 Rise Set
Actual Time 6:46 AM EET 5:25 PM EET
Civil Twilight 6:21 AM EET 5:50 PM EET
Nautical Twilight 5:53 AM EET 6:19 PM EET
Astronomical Twilight 5:25 AM EET 6:47 PM EET
Moon 10:20 AM EET (1/17) 11:16 PM EET (1/17)
Length of Visible Light 11h 29m
Length of Day
10h 39m
Waxing Crescent, 34% of the Moon is Illuminated
Jan 17
Waxing Crescent
Jan 19
First Quarter
Jan 27
Full
Feb 3
Last Quarter
Feb 10
New

Hourly Weather History & Observations

Time (EET) Temp. Dew Point Humidity Pressure Visibility Wind Dir Wind Speed Gust Speed Precip Events Conditions
12:00 AM 57.2 °F 42.8 °F 59% 30.06 in - Calm Calm - N/A   Clear
1:00 AM 57.2 °F 42.8 °F 59% 30.06 in - Calm Calm - N/A   Clear
2:00 AM 56 °F 44 °F 54% 30.09 in 6 mi WNW 1.2 mph - -  
2:00 AM 55.4 °F 44.6 °F 67% 30.06 in - WNW 1.2 mph - N/A   Clear
3:00 AM 55.4 °F 44.6 °F 67% 30.06 in - West 1.2 mph - N/A   Clear
4:00 AM 53.6 °F 44.6 °F 72% 30.06 in - West 2.3 mph - N/A   Clear
5:00 AM 51.8 °F 37.4 °F 58% 30.04 in - South 1.2 mph - N/A   Clear
6:00 AM 50.0 °F 37.4 °F 62% 30.06 in - South 1.2 mph - N/A   Clear
7:00 AM 48.2 °F 35.6 °F 62% 30.06 in - NW 3.5 mph - N/A   Clear
8:00 AM 50 °F 38 °F 52% 30.10 in 6 mi West 3.5 mph - -   Partly Cloudy
8:00 AM 50.0 °F 37.4 °F 62% 30.06 in - West 3.5 mph - N/A   Clear
9:00 AM 59.0 °F 33.8 °F 39% 30.09 in - WNW 3.5 mph - N/A   Clear
10:00 AM 66.2 °F 35.6 °F 32% 30.09 in - NW 5.8 mph - N/A   Clear
11:00 AM 69.8 °F 33.8 °F 27% 30.06 in - NW 9.2 mph - N/A   Clear
12:00 PM 71.6 °F 42.8 °F 35% 30.04 in - North 12.7 mph - N/A   Clear
12:24 PM 71.6 °F 42.8 °F 35% 30.04 in - North 12.7 mph - N/A   Clear
1:20 PM 73.4 °F 41.0 °F 31% 30.04 in - North 12.7 mph - N/A   Clear
2:00 PM 72 °F 42 °F 23% 30.00 in 6 mi NNW 12.7 mph - -  
2:00 PM 71.6 °F 42.8 °F 35% 30.01 in - NNW 12.7 mph - N/A   Clear
3:00 PM 73.4 °F 44.6 °F 36% 30.04 in - North 13.8 mph - N/A   Clear
4:00 PM 71.6 °F 44.6 °F 38% 30.01 in - North 11.5 mph - N/A   Clear
6:00 PM 66.2 °F 44.6 °F 46% 30.06 in - WNW 11.5 mph - N/A   Clear
7:00 PM 64.4 °F 48.2 °F 56% 30.06 in - NNW 11.5 mph - N/A   Clear
8:00 PM 64 °F 49 °F 48% 30.02 in 6 mi North 11.5 mph - -  
8:00 PM 64.4 °F 50.0 °F 59% 30.04 in - North 11.5 mph - N/A   Clear
9:00 PM 62.6 °F 50.0 °F 63% 30.06 in - WNW 9.2 mph - N/A   Clear
10:00 PM 60.8 °F 48.2 °F 63% 30.06 in - East 2.3 mph - N/A   Clear
11:00 PM 60.8 °F 50.0 °F 68% 30.04 in - WNW 3.5 mph - N/A   Clear